VIR86 KLAS-EGCC

Flight info

Callsign VIR86
Flight time N/A
Altitude 35000
Route GIDGT3 TUKRR DCT DVC DCT HBU DCT TXC DCT HCT DCT FOD DCT DLL DCT TVC DCT YYB DCT YBC DCT LOMSI/M083F350 DCT 55N050W 56N040W 57N030W 57N020W DCT PIKIL/N0479F350 DCT SOVED DCT LUTOV DCT MAKUX
Aircraft A346/H-SDE2E3FGHIJ3J4J5M1RWXY/LB1D1

Departure

Time 2026-05-07 02:20
Airport Harry Reid International Airport (KLAS)

Arrival

Time N/A
Airport Manchester Airport (EGCC)
Time Latitude Longitude Altitude Speed Heading
2026-05-07 01:45 36.08526 -115.13443 2101 ft 0 kts
2026-05-07 01:55 36.08528 -115.13443 2101 ft 0 kts
2026-05-07 02:09 36.08505 -115.13445 2101 ft 4 kts
2026-05-07 02:10 36.08480 -115.13453 2102 ft 4 kts 24°
2026-05-07 02:10 36.08461 -115.13469 2101 ft 4 kts 51°
2026-05-07 02:10 36.08454 -115.13486 2103 ft 4 kts 92°
2026-05-07 02:10 36.08457 -115.13495 2102 ft 1 kts 135°
2026-05-07 02:13 36.08456 -115.13494 2103 ft 1 kts 135°
2026-05-07 02:14 36.08430 -115.13462 2103 ft 7 kts 135°
2026-05-07 02:14 36.08393 -115.13416 2101 ft 8 kts 135°
2026-05-07 02:14 36.08348 -115.13361 2101 ft 10 kts 135°
2026-05-07 02:14 36.08285 -115.13302 2099 ft 12 kts 159°
2026-05-07 02:15 36.08188 -115.13292 2096 ft 15 kts 180°
2026-05-07 02:15 36.08077 -115.13291 2096 ft 16 kts 179°
2026-05-07 02:15 36.07967 -115.13291 2096 ft 16 kts 180°
2026-05-07 02:15 36.07859 -115.13291 2096 ft 13 kts 180°
2026-05-07 02:16 36.07796 -115.13291 2096 ft 3 kts 177°
2026-05-07 02:16 36.07791 -115.13291 2096 ft 1 kts 176°
2026-05-07 02:16 36.07775 -115.13286 2096 ft 5 kts 155°
2026-05-07 02:16 36.07754 -115.13221 2094 ft 11 kts 91°
2026-05-07 02:17 36.07756 -115.13106 2090 ft 15 kts 90°
2026-05-07 02:17 36.07755 -115.12966 2084 ft 18 kts 90°
2026-05-07 02:17 36.07755 -115.12790 2077 ft 22 kts 90°
2026-05-07 02:17 36.07756 -115.12628 2071 ft 16 kts 89°
2026-05-07 02:18 36.07756 -115.12477 2066 ft 19 kts 90°
2026-05-07 02:18 36.07756 -115.12300 2061 ft 22 kts 89°
2026-05-07 02:18 36.07751 -115.12166 2059 ft 12 kts 114°
2026-05-07 02:18 36.07676 -115.12124 2057 ft 11 kts 189°
2026-05-07 02:19 36.07644 -115.12199 2058 ft 11 kts 267°
2026-05-07 02:19 36.07643 -115.12254 2059 ft 1 kts 269°
2026-05-07 02:19 36.07642 -115.12410 2063 ft 44 kts 270°
2026-05-07 02:19 36.07641 -115.13018 2083 ft 96 kts 270°
2026-05-07 02:20 36.07641 -115.14059 2103 ft 143 kts 270°
2026-05-07 02:20 36.07639 -115.15471 2122 ft 182 kts 269°
2026-05-07 02:20 36.07634 -115.17134 2403 ft 194 kts 270°
2026-05-07 02:20 36.07624 -115.18785 2979 ft 189 kts 270°
2026-05-07 02:21 36.07616 -115.20406 3495 ft 189 kts 269°
2026-05-07 02:21 36.07616 -115.22047 3905 ft 192 kts 270°
2026-05-07 02:21 36.07620 -115.23717 4119 ft 202 kts 270°
2026-05-07 02:21 36.07626 -115.25506 4328 ft 213 kts 272°
2026-05-07 02:22 36.08038 -115.27326 4553 ft 225 kts 304°
2026-05-07 02:22 36.09230 -115.28607 4812 ft 235 kts 336°
2026-05-07 02:22 36.10825 -115.29151 5057 ft 248 kts 348°
2026-05-07 02:22 36.12540 -115.29597 5507 ft 252 kts 348°
2026-05-07 02:23 36.14280 -115.29648 6112 ft 252 kts 14°
2026-05-07 02:23 36.15830 -115.28671 6680 ft 256 kts 41°
2026-05-07 02:23 36.16919 -115.26855 6981 ft 273 kts 60°
2026-05-07 02:23 36.17742 -115.24679 7425 ft 283 kts 65°
2026-05-07 02:24 36.18457 -115.22397 8065 ft 285 kts 66°
2026-05-07 02:24 36.19139 -115.20085 8762 ft 287 kts 71°
2026-05-07 02:24 36.19554 -115.17647 9447 ft 291 kts 81°
2026-05-07 02:24 36.19645 -115.15120 10109 ft 295 kts 86°
2026-05-07 02:25 36.19645 -115.12538 10566 ft 306 kts 87°
2026-05-07 02:25 36.19636 -115.09832 10804 ft 322 kts 87°
2026-05-07 02:25 36.19627 -115.06972 11084 ft 338 kts 87°
2026-05-07 02:25 36.19622 -115.03994 11359 ft 353 kts 87°
2026-05-07 02:26 36.19618 -115.00876 11647 ft 369 kts 88°
2026-05-07 02:26 36.19613 -114.97634 11991 ft 381 kts 87°
2026-05-07 02:26 36.19610 -114.94326 12616 ft 385 kts 88°
2026-05-07 02:26 36.19605 -114.90995 13338 ft 387 kts 88°
2026-05-07 02:27 36.19601 -114.87649 13999 ft 389 kts 88°
2026-05-07 02:27 36.19595 -114.84280 14605 ft 392 kts 88°
2026-05-07 02:27 36.19588 -114.80892 15215 ft 394 kts 88°
2026-05-07 02:27 36.19581 -114.77476 15794 ft 397 kts 88°
2026-05-07 02:28 36.19573 -114.74042 16380 ft 400 kts 88°
2026-05-07 02:28 36.19565 -114.70620 16949 ft 403 kts 88°
2026-05-07 02:28 36.19556 -114.67086 17555 ft 406 kts 88°
2026-05-07 02:28 36.19548 -114.63570 18128 ft 409 kts 88°
2026-05-07 02:29 36.19540 -114.60074 18599 ft 412 kts 88°
2026-05-07 02:29 36.19531 -114.56509 19088 ft 415 kts 88°
2026-05-07 02:29 36.19521 -114.52923 19577 ft 417 kts 88°
2026-05-07 02:29 36.19510 -114.49310 20076 ft 420 kts 88°
2026-05-07 02:30 36.19498 -114.45680 20573 ft 423 kts 88°
2026-05-07 02:30 36.19486 -114.42019 21065 ft 425 kts 88°
2026-05-07 02:30 36.19471 -114.38346 21565 ft 428 kts 87°
2026-05-07 02:30 36.19456 -114.34643 22025 ft 431 kts 88°
2026-05-07 02:31 36.19438 -114.30915 22478 ft 434 kts 87°
2026-05-07 02:31 36.19451 -114.27157 22939 ft 436 kts 85°
2026-05-07 02:31 36.19612 -114.23387 23398 ft 438 kts 83°
2026-05-07 02:31 36.19936 -114.19628 23779 ft 440 kts 79°
2026-05-07 02:32 36.20372 -114.15861 24166 ft 442 kts 79°
2026-05-07 02:32 36.20823 -114.12083 24579 ft 444 kts 79°
2026-05-07 02:32 36.21278 -114.08286 24969 ft 446 kts 79°
2026-05-07 02:32 36.21734 -114.04477 25334 ft 448 kts 79°
2026-05-07 02:33 36.22191 -114.00646 25722 ft 450 kts 79°
2026-05-07 02:33 36.22646 -113.96805 26101 ft 452 kts 79°
2026-05-07 02:33 36.23103 -113.92934 26468 ft 454 kts 79°
2026-05-07 02:33 36.23561 -113.89052 26832 ft 456 kts 79°